TimeCDT,TemperatureF,Dew PointF,Humidity,Sea Level PressureIn,VisibilityMPH,Wind Direction,Wind SpeedMPH,Gust SpeedMPH,PrecipitationIn,Events,Conditions,WindDirDegrees,DateUTC
12:53 AM,61.0,59.0,93,29.85,10.0,Calm,Calm,-,N/A,,Scattered Clouds,0,2013-05-17 05:53:00
1:53 AM,60.1,57.9,93,29.83,10.0,SSE,4.6,-,N/A,,Partly Cloudy,150,2013-05-17 06:53:00
2:53 AM,60.1,59.0,96,29.81,9.0,SSE,6.9,-,N/A,,Partly Cloudy,150,2013-05-17 07:53:00
3:53 AM,61.0,60.1,97,29.82,7.0,South,5.8,-,N/A,,Scattered Clouds,170,2013-05-17 08:53:00
4:53 AM,60.1,60.1,100,29.83,5.0,South,5.8,-,N/A,,Clear,180,2013-05-17 09:53:00
5:49 AM,57.2,57.2,100,29.86,1.5,Calm,Calm,-,N/A,,Partly Cloudy,0,2013-05-17 10:49:00
5:53 AM,57.0,57.0,100,29.84,0.8,Calm,Calm,-,N/A,,Mostly Cloudy,0,2013-05-17 10:53:00
6:02 AM,57.2,57.2,100,29.87,1.0,Calm,Calm,-,N/A,,Mist,0,2013-05-17 11:02:00
6:17 AM,57.2,57.2,100,29.87,0.5,Calm,Calm,-,N/A,Fog,Fog,0,2013-05-17 11:17:00
6:53 AM,60.1,60.1,100,29.86,0.5,Variable,4.6,-,N/A,Fog,Fog,0,2013-05-17 11:53:00
7:00 AM,60.8,60.8,100,29.89,0.2,Calm,Calm,-,N/A,Fog,Fog,0,2013-05-17 12:00:00
7:02 AM,60.8,60.8,100,29.89,0.2,Calm,Calm,-,N/A,Fog,Fog,0,2013-05-17 12:02:00
7:09 AM,60.8,60.8,100,29.89,0.1,Variable,3.5,-,N/A,Fog,Fog,0,2013-05-17 12:09:00
7:38 AM,60.8,60.8,100,29.90,0.1,East,3.5,-,N/A,Fog,Fog,100,2013-05-17 12:38:00
7:53 AM,61.0,61.0,100,29.88,0.1,Calm,Calm,-,N/A,Fog,Fog,0,2013-05-17 12:53:00
8:21 AM,62.6,62.6,100,29.91,0.2,Calm,Calm,-,N/A,Fog,Fog,0,2013-05-17 13:21:00
8:44 AM,62.6,62.6,100,29.92,0.2,Variable,3.5,-,N/A,,Mostly Cloudy,0,2013-05-17 13:44:00
8:51 AM,62.6,62.6,100,29.92,0.8,Calm,Calm,-,N/A,,Mostly Cloudy,0,2013-05-17 13:51:00
8:53 AM,63.0,63.0,100,29.90,0.8,Calm,Calm,-,N/A,,Mostly Cloudy,0,2013-05-17 13:53:00
9:04 AM,62.6,62.6,100,29.91,2.5,Calm,Calm,-,N/A,,Mostly Cloudy,0,2013-05-17 14:04:00
9:11 AM,64.4,64.4,100,29.91,4.0,Calm,Calm,-,N/A,,Mostly Cloudy,0,2013-05-17 14:11:00
9:20 AM,64.4,64.4,100,29.92,5.0,Calm,Calm,-,N/A,,Mostly Cloudy,0,2013-05-17 14:20:00
9:53 AM,69.1,64.9,87,29.89,8.0,SE,3.5,-,N/A,,Mostly Cloudy,130,2013-05-17 14:53:00
10:53 AM,72.0,64.9,78,29.87,10.0,ESE,6.9,-,N/A,,Scattered Clouds,110,2013-05-17 15:53:00
11:53 AM,75.0,64.9,71,29.88,10.0,SE,8.1,-,N/A,,Scattered Clouds,140,2013-05-17 16:53:00
12:53 PM,77.0,64.0,64,29.87,10.0,SE,8.1,-,N/A,,Scattered Clouds,140,2013-05-17 17:53:00
1:53 PM,78.8,64.4,61,29.89,10.0,ESE,6.9,-,N/A,,Scattered Clouds,120,2013-05-17 18:53:00
2:53 PM,80.1,64.9,60,29.85,10.0,SE,11.5,-,N/A,,Scattered Clouds,130,2013-05-17 19:53:00
3:53 PM,82.0,66.0,58,29.83,10.0,SE,11.5,-,N/A,,Partly Cloudy,140,2013-05-17 20:53:00
4:53 PM,81.0,66.0,60,29.82,10.0,SE,12.7,-,N/A,,Partly Cloudy,130,2013-05-17 21:53:00
5:53 PM,80.1,64.9,60,29.81,10.0,SSE,11.5,-,N/A,,Partly Cloudy,150,2013-05-17 22:53:00
6:53 PM,79.0,64.0,60,29.81,10.0,SE,10.4,-,N/A,,Partly Cloudy,130,2013-05-17 23:53:00
7:53 PM,77.0,64.0,64,29.82,10.0,SSE,9.2,-,N/A,,Partly Cloudy,150,2013-05-18 00:53:00
8:53 PM,73.0,64.0,73,29.83,10.0,SSE,9.2,-,N/A,,Scattered Clouds,150,2013-05-18 01:53:00
9:53 PM,71.1,64.0,78,29.84,10.0,SE,8.1,-,N/A,,Partly Cloudy,140,2013-05-18 02:53:00
10:53 PM,72.0,64.9,78,29.84,10.0,SE,10.4,-,N/A,,Scattered Clouds,140,2013-05-18 03:53:00
11:53 PM,71.1,66.0,84,29.83,9.0,SE,10.4,-,N/A,,Partly Cloudy,140,2013-05-18 04:53:00